STARLINK-1216, 45185

Orbit data source: Space-Track

STARLINK-1216, 45185 is a payload satellite owned by SpaceX/Seattle (US) in LEO that was launched on Mon, 17 Feb 2020 UTC via an FALCON 9 launch vehicle from the Air Force Eastern Test Range (AFETR). Payload-class satellites include a variety of spacecraft equipped with specific instruments for various scientific and technological missions. These include communications satellites like Starlink; space stations such as the ISS; scientific satellites like the Hubble; Earth observation satellites from companies like Planet Labs, Umbra, and HawkEye 360; GPS; miniature CubeSats for education and research; and military/defense satellites.

Loading next visibility...
Identifier
45185, 2020-012H
Orbit
LEO
Country
Flag of USUS
Related business
Manufacturer
SpaceX/Seattle
Mission
Partially operational Commercial Communications
Bus & Motor
STARLINK, Unknown motor
Mass
260 kg wet, ~248 kg dry
Launch date (UTC)
2020-02-17 (7 years ago)
Launch vehicle
FALCON 9
Launch site
Air Force Eastern Test Range (AFETR)
Object type
Payload
Rocket body
Debris
Shape & HBR
Box + 1 Pan, 10.1 m
Radar Cross Section
13.562 m², Large (>1 m²)

Expand to show TLE details & history
Last TLE update: 1 day ago

TLE from 1 day ago
0 STARLINK-1216
1 45185U 20012H   26253.29239198  .00017536  00000-0  37594-3 0  9992
2 45185  53.1533 253.5549 0002615  35.4328 324.6852 15.44856455363275
Epoch: 2026-09-10T07:01Z
TLE epoch observation values (Epoch: 2026-09-10T07:01:02.667Z)
Latitude
-0.00003°
Longitude
158.96157°
Altitude
431.252 km
Speed
7.655 km/s
True Right ascension
16h 54m 13s
True Declination
0° 00' 00"
Sunlit
Object was in daylight at epoch
Visualization orbit readout
Latitude
Unknown
Longitude
Unknown
Altitude
Unknown
Speed
Unknown
Apparent Right ascension
Unknown
Apparent Declination
Unknown
Sunlit
N/A
Visualization observer readout
Local Sidereal Time
00:10:53
Azimuth
Unknown
Elevation
Unknown
Doppler factor
Unknown
Orbital elements
Apogee altitude
433.84 km
Perigee altitude
430.278 km
Semi-major axis
6,810.196 km
Eccentricity
0.00026
Inclination
53.1533°
RAAN
253.5549°
Arg. of periapsis
35.4328°
True anomaly
324.66787°
Mean anomaly
324.6852°
Eccentric anomaly
324.67654°
Mean motion
3.86192 °/min
Orbital period
93.22 mins
BSTAR
0.00037594
Loading maneuver chart data...
Computing Atmospheric mass density...

Documentation

Showing up to 5 results
|